TimeMST,TemperatureF,Dew PointF,Humidity,Sea Level PressureIn,VisibilityMPH,Wind Direction,Wind SpeedMPH,Gust SpeedMPH,PrecipitationIn,Events,Conditions,WindDirDegrees,DateUTC
12:56 AM,25.0,17.1,72,30.25,-9999.0,NNW,6.9,-,N/A,,Unknown,330,2013-02-28 07:56:00
1:56 AM,21.9,15.1,75,30.24,-9999.0,WNW,8.1,-,N/A,,Unknown,300,2013-02-28 08:56:00
2:56 AM,21.0,14.0,74,30.25,-9999.0,NW,9.2,-,N/A,,Unknown,310,2013-02-28 09:56:00
3:56 AM,19.9,12.9,74,30.26,-9999.0,NW,10.4,-,N/A,,Unknown,320,2013-02-28 10:56:00
4:56 AM,19.0,12.0,74,30.30,-9999.0,NW,10.4,-,N/A,,Unknown,320,2013-02-28 11:56:00
5:56 AM,19.0,12.0,74,30.31,-9999.0,NW,11.5,-,N/A,,Unknown,310,2013-02-28 12:56:00
6:56 AM,21.0,12.9,71,30.33,-9999.0,NW,9.2,-,N/A,,Unknown,310,2013-02-28 13:56:00
7:56 AM,33.1,15.1,48,30.29,-9999.0,WNW,11.5,-,N/A,,Unknown,300,2013-02-28 14:56:00
8:56 AM,37.9,10.0,32,30.30,-9999.0,NW,17.3,25.3,N/A,,Unknown,320,2013-02-28 15:56:00
9:56 AM,41.0,9.0,27,30.27,-9999.0,NNW,12.7,-,N/A,,Unknown,340,2013-02-28 16:56:00
10:56 AM,42.1,10.0,27,30.26,-9999.0,NNW,13.8,26.5,N/A,,Unknown,340,2013-02-28 17:56:00
11:56 AM,45.0,9.0,23,30.22,-9999.0,NNW,17.3,26.5,N/A,,Unknown,340,2013-02-28 18:56:00
12:56 PM,46.9,8.1,21,30.19,-9999.0,North,19.6,24.2,N/A,,Unknown,10,2013-02-28 19:56:00
1:56 PM,46.9,7.0,20,30.19,-9999.0,North,12.7,20.7,N/A,,Unknown,360,2013-02-28 20:56:00
2:56 PM,46.9,7.0,20,30.19,-9999.0,North,11.5,23.0,N/A,,Unknown,360,2013-02-28 21:56:00
3:56 PM,46.9,6.1,19,30.17,-9999.0,North,10.4,-,N/A,,Unknown,350,2013-02-28 22:56:00
4:56 PM,45.0,6.1,20,30.18,-9999.0,North,4.6,-,N/A,,Unknown,350,2013-02-28 23:56:00
5:56 PM,37.0,6.1,28,30.21,-9999.0,NNW,5.8,-,N/A,,Unknown,340,2013-03-01 00:56:00
6:56 PM,28.9,7.0,40,30.24,-9999.0,WNW,3.5,-,N/A,,Unknown,300,2013-03-01 01:56:00
7:00 PM,-9999,-9999,N/A,-9999,-9999.0,North,-9999.0,-,N/A,,Unknown,0,2013-03-01 02:00:00
7:56 PM,34.0,10.0,37,30.21,-9999.0,NNE,8.1,-,N/A,,Unknown,20,2013-03-01 02:56:00
8:56 PM,33.1,12.0,42,30.22,-9999.0,NNW,4.6,-,N/A,,Unknown,330,2013-03-01 03:56:00
9:56 PM,32.0,15.1,50,30.23,-9999.0,NW,6.9,-,N/A,,Unknown,310,2013-03-01 04:56:00
10:56 PM,30.9,15.1,52,30.22,-9999.0,North,4.6,-,N/A,,Unknown,360,2013-03-01 05:56:00
11:56 PM,33.1,15.1,48,30.19,-9999.0,North,8.1,-,N/A,,Unknown,360,2013-03-01 06:56:00